Gainesville, GA

4:33 AM EDT on October 17, 2019 (GMT -0400)
Gilmer Memorial

Weather History for KGVL - August, 2019

Change the Weather History Date:

Friday, August 16, 2019

  Actual Average Record
Temperature  
Mean Temperature 81 °F 78 °F  
Max Temperature 93 °F 87 °F 100 °F (1954)
Min Temperature 68 °F 69 °F 58 °F (1961)
Cooling Degree Days 16 13  
Month to date cooling degree days 249 220  
Year to date cooling degree days 1322 1142  
Since 1 June cooling degree days 986 967  
Growing Degree Days 30 (Base 50)    
Moisture  
Dew Point 65 °F    
Average Humidity 64    
Maximum Humidity 90    
Minimum Humidity 37    
Precipitation  
Precipitation 0.00 in 0.13 in 5.62 in (1969)
Month to date precipitation 2.13 2.53  
Year to date precipitation 36.97 34.35  
Sea Level Pressure  
Sea Level Pressure 29.96 in    
Wind  
Wind Speed 3 mph (NNW)    
Max Wind Speed 12 mph    
Max Gust Speed 16 mph    
Visibility 10 miles    
Events      
T = Trace of Precipitation, MM = Missing Value Source: NWS Daily Summary

Daily Weather History Graph

Daily Weather History Graph

Search for Another Location

Airport or City:

Astronomy

Aug. 16, 2019 Rise Set
Actual Time 6:57 AM EDT 8:21 PM EDT
Civil Twilight 6:30 AM EDT 8:48 PM EDT
Nautical Twilight 5:58 AM EDT 9:19 PM EDT
Astronomical Twilight 5:25 AM EDT 9:52 PM EDT
Moon 9:22 PM EDT (8/16) 7:47 AM EDT (8/16)
Length of Visible Light 14h 17m
Length of Day
13h 24m
Full, 99% of the Moon is Illuminated
Aug 16
Full
Aug 23
Last Quarter
Aug 30
New
Sep 5
First Quarter
Sep 14
Full

Hourly Weather History & Observations

Time (EDT) Temp. Heat Index Dew Point Humidity Pressure Visibility Wind Dir Wind Speed Gust Speed Precip Events Conditions
12:53 AM 73.9 °F - 66.9 °F 79% 29.95 in 10.0 mi NW 3.5 mph - N/A   Clear
1:53 AM 73.0 °F - 66.9 °F 81% 29.95 in 10.0 mi NW 4.6 mph - N/A   Clear
2:53 AM 71.1 °F - 66.0 °F 84% 29.94 in 10.0 mi NW 3.5 mph - N/A   Clear
3:53 AM 71.1 °F - 66.9 °F 87% 29.94 in 10.0 mi North 4.6 mph - N/A   Clear
4:53 AM 69.1 °F - 66.0 °F 90% 29.95 in 10.0 mi NW 3.5 mph - N/A   Clear
5:53 AM 69.1 °F - 64.9 °F 87% 29.96 in 10.0 mi Calm Calm - N/A   Clear
6:53 AM 69.1 °F - 64.9 °F 87% 29.96 in 10.0 mi Calm Calm - N/A   Clear
7:53 AM 71.1 °F - 66.0 °F 84% 29.98 in 10.0 mi Calm Calm - N/A   Clear
9:53 AM 82.0 °F 84.5 °F 66.9 °F 60% 29.99 in 10.0 mi North 3.5 mph - N/A   Clear
10:53 AM 84.9 °F 87.1 °F 66.0 °F 53% 29.99 in 10.0 mi Variable 4.6 mph - N/A   Clear
11:53 AM 86.0 °F 88.8 °F 66.9 °F 53% 30.00 in 10.0 mi NNW 5.8 mph - N/A   Clear
12:53 PM 89.1 °F 88.2 °F 59.0 °F 36% 29.99 in 10.0 mi North - - N/A   Clear
1:53 PM 89.1 °F 90.0 °F 63.0 °F 42% 29.99 in 10.0 mi North 8.1 mph - N/A   Clear
2:53 PM 89.1 °F 89.0 °F 61.0 °F 39% 29.97 in 10.0 mi NW 4.6 mph - N/A   Clear
3:53 PM 91.0 °F 91.9 °F 63.0 °F 39% 29.96 in 10.0 mi NNW 8.1 mph - N/A   Clear
4:53 PM 91.9 °F 93.3 °F 64.0 °F 39% 29.94 in 10.0 mi Variable 5.8 mph - N/A   Clear
5:53 PM 90.0 °F 90.0 °F 61.0 °F 38% 29.94 in 10.0 mi Calm Calm - N/A   Clear
6:53 PM 91.0 °F 91.5 °F 62.1 °F 38% 29.94 in 10.0 mi Calm Calm - N/A   Clear
7:53 PM 86.0 °F 88.2 °F 66.0 °F 51% 29.94 in 10.0 mi Calm Calm - N/A   Clear
8:53 PM 84.0 °F 85.4 °F 64.0 °F 51% 29.95 in 10.0 mi NNW 5.8 mph - N/A   Clear
9:53 PM 82.0 °F 83.4 °F 64.0 °F 54% 29.96 in 10.0 mi NNW 3.5 mph - N/A   Clear
10:53 PM 81.0 °F 82.5 °F 64.0 °F 56% 29.97 in 10.0 mi North 3.5 mph - N/A   Clear
11:53 PM 75.9 °F - 66.0 °F 71% 29.98 in 10.0 mi Calm Calm - N/A   Clear